This is the latest recevied weather packets stored in our database for station/object LY3FF-10. If no packets are shown the sender has not sent any weather packets the latest 10 day(s).
| Time | Temp. | Humidity | Pressure | Rain* | Wind** | Luminosity | Snow |
|---|---|---|---|---|---|---|---|
| 1777860267 | 13.33° C | 40% | 990.9 hPa | - | - | - | - |
| 1777859482 | 12.22° C | 40% | 991 hPa | - | - | - | - |
| 1777858587 | 11.67° C | 40% | 991.1 hPa | - | - | - | - |
| 1777857842 | 12.22° C | 40% | 991.2 hPa | - | - | - | - |
| 1777856972 | 11.67° C | 40% | 991.2 hPa | - | - | - | - |
| 1777856105 | 11.67° C | 39% | 991.3 hPa | - | - | - | - |
| 1777855265 | 13.89° C | 39% | 991.4 hPa | - | - | - | - |
| 1777854462 | 11.67° C | 39% | 991.4 hPa | - | - | - | - |
| 1777853612 | 13.33° C | 38% | 991.4 hPa | - | - | - | - |
| 1777852857 | 13.33° C | 38% | 991.4 hPa | - | - | - | - |
| 1777852067 | 12.22° C | 38% | 991.5 hPa | - | - | - | - |
| 1777851292 | 12.22° C | 37% | 991.4 hPa | - | - | - | - |
| 1777850517 | 13.33° C | 37% | 991.6 hPa | - | - | - | - |
| 1777849793 | 12.22° C | 36% | 991.6 hPa | - | - | - | - |
| 1777849002 | 12.78° C | 36% | 991.6 hPa | - | - | - | - |
| 1777848167 | 12.78° C | 35% | 991.6 hPa | - | - | - | - |
| 1777847402 | 14.44° C | 34% | 991.8 hPa | - | - | - | - |
| 1777846627 | 13.33° C | 33% | 991.8 hPa | - | - | - | - |
| 1777845837 | 13.33° C | 33% | 991.9 hPa | - | - | - | - |
| 1777845037 | 13.89° C | 32% | 991.8 hPa | - | - | - | - |
| 1777844172 | 15° C | 32% | 991.9 hPa | - | - | - | - |
| 1777843287 | 15° C | 31% | 992 hPa | - | - | - | - |
| 1777842442 | 14.44° C | 30% | 992.1 hPa | - | - | - | - |
| 1777841612 | 16.11° C | 30% | 992.2 hPa | - | - | - | - |
| 1777840722 | 16.11° C | 29% | 992.1 hPa | - | - | - | - |
* Rain since midnight (hover to see other rain measurements)
** Current wind speed in m/s (hover to see current wind gust speed)